FW2899 Weather Reports


time (UTC)temp
F
wind
direction
speed
knots
gust
knots
rain 1hr
in
rain 24hr
in
rain mn
in
humidity
%
barometer
mb
20260503004016 61 203 0.9 2.6 0.00 0.00 0.00 35 1011.7
20260503003016 61 180 0.9 1.7 0.00 0.00 0.00 35 1011.7
20260503002016 61 180 0.9 2.6 0.00 0.00 0.00 34 1011.7
20260503001016 61 270 1.7 5.2 0.00 0.00 0.00 34 1011.7
20260503000016 61 248 1.7 4.3 0.00 0.00 0.00 34 1011.7
20260502235016 61 248 1.7 5.2 0.00 0.00 0.00 35 1011.9
20260502234016 61 158 0.9 2.6 0.00 0.00 0.00 36 1011.7
20260502233016 61 248 1.7 3.5 0.00 0.00 0.00 34 1011.8
20260502232036 62 225 1.7 2.6 0.00 0.00 0.00 34 1012.0
20260502231036 62 270 2.6 7.8 0.00 0.00 0.00 34 1012.2
20260502230016 62 248 2.6 7.0 0.00 0.00 0.00 33 1012.4
20260502225016 63 248 2.6 7.0 0.00 0.00 0.00 33 1012.3
20260502224016 62 248 3.5 8.7 0.00 0.00 0.00 34 1012.4
20260502223016 63 270 3.5 7.0 0.00 0.00 0.00 34 1012.5
20260502222016 63 270 3.5 7.0 0.00 0.00 0.00 34 1012.5
20260502221016 62 248 1.7 3.5 0.00 0.00 0.00 34 1012.6
20260502220016 63 270 2.6 8.7 0.00 0.00 0.00 32 1012.7
20260502215016 62 270 2.6 6.1 0.00 0.00 0.00 33 1013.0
20260502214016 61 248 2.6 6.1 0.00 0.00 0.00 33 1013.2
20260502213016 62 248 3.5 7.0 0.00 0.00 0.00 34 1013.4
20260502212016 62 293 1.7 5.2 0.00 0.00 0.00 34 1013.5
20260502211016 61 270 2.6 5.2 0.00 0.00 0.00 36 1013.7
20260502210015 60 248 2.6 7.8 0.00 0.00 0.00 33 1013.8
20260502205016 62 293 1.7 4.3 0.00 0.00 0.00 33 1014.0
20260502204016 61 248 1.7 7.0 0.00 0.00 0.00 32 1014.1
20260502203016 61 248 4.3 8.7 0.00 0.00 0.00 30 1014.4
20260502202015 61 270 2.6 7.0 0.00 0.00 0.00 33 1014.6
20260502201035 61 225 2.6 6.1 0.00 0.00 0.00 33 1014.7
20260502200016 59 248 2.6 6.1 0.00 0.00 0.00 35 1014.8
20260502195035 59 180 2.6 8.7 0.00 0.00 0.00 34 1015.0
20260502194035 60 270 2.6 7.0 0.00 0.00 0.00 35 1015.0
20260502193016 59 248 2.6 5.2 0.00 0.00 0.00 32 1015.2
20260502192035 59 270 2.6 6.1 0.00 0.00 0.00 38 1015.4
20260502191015 59 248 2.6 7.8 0.00 0.00 0.00 34 1015.7
20260502190015 59 225 2.6 7.8 0.00 0.00 0.00 33 1015.8
20260502185015 59 203 2.6 6.1 0.00 0.00 0.00 35 1015.9
20260502184016 58 270 3.5 7.8 0.00 0.00 0.00 35 1016.1
20260502183016 58 270 3.5 7.8 0.00 0.00 0.00 38 1016.3
20260502182035 58 270 2.6 7.8 0.00 0.00 0.00 36 1016.4
20260502181015 57 225 3.5 8.7 0.00 0.00 0.00 35 1016.4
20260502164017 55 270 2.6 6.1 0.00 0.00 0.00 37 1017.7
20260502163017 56 248 1.7 5.2 0.00 0.00 0.00 41 1017.8
20260502162037 55 270 3.5 7.8 0.00 0.00 0.00 44 1018.0
20260502161037 55 270 3.5 8.7 0.00 0.00 0.00 37 1018.0
20260502152017 53 315 3.5 7.8 0.00 0.00 0.00 38 1018.2
20260502151017 53 270 2.6 7.0 0.00 0.00 0.00 42 1018.2
20260502123017 39 203 0.9 1.7 0.00 0.00 0.00 61 1018.6
20260502122017 39 180 0.9 4.3 0.00 0.00 0.00 62 1018.5
20260502121017 38 180 0.9 1.7 0.00 0.00 0.00 63 1018.4
20260502115017 36 0.0 1.7 0.00 0.00 0.00 65 1018.1
20260502114037 35 0.0 1.7 0.00 0.00 0.00 67 1018.0
20260502113017 34 0.0 0.9 0.00 0.00 0.00 70 1017.9
20260502112017 33 0.0 0.9 0.00 0.00 0.00 73 1017.7
20260502111017 32 0.0 0.0 0.00 0.00 0.00 74 1017.7
20260502110017 33 0.0 0.0 0.00 0.00 0.00 72 1017.9
20260502105017 34 0.0 0.9 0.00 0.00 0.00 70 1017.7
20260502104037 34 0.0 1.7 0.00 0.00 0.00 70 1018.0
20260502103017 33 0.0 0.0 0.00 0.00 0.00 71 1017.8
20260502102017 33 0.0 0.9 0.00 0.00 0.00 74 1017.9
20260502101017 33 0.0 0.9 0.00 0.00 0.00 73 1017.8
20260502091017 34 0.0 0.0 0.00 0.00 0.00 68 1018.0
20260502071036 37 0.0 0.0 0.00 0.00 0.00 64 1018.0
20260502070016 37 0.0 0.0 0.00 0.00 0.00 64 1018.1
20260502065036 37 0.0 0.0 0.00 0.00 0.00 64 1018.2
20260502064017 37 0.0 0.9 0.00 0.00 0.00 64 1018.3
20260502063016 37 0.0 0.0 0.00 0.00 0.00 65 1018.3
20260502062016 37 0.0 0.0 0.00 0.00 0.00 64 1018.3
20260502061117 37 0.0 0.9 0.00 0.00 0.00 64 1018.1
20260502060517 37 0.0 0.9 0.00 0.00 0.00 63 1018.3
20260502055516 38 0.0 0.0 0.00 0.00 0.00 63 1018.3
20260502054516 38 0.0 0.0 0.00 0.00 0.00 61 1018.3
20260502053516 38 0.0 0.0 0.00 0.00 0.00 60 1018.4
20260502052516 38 0.0 0.0 0.00 0.00 0.00 60 1018.3
20260502051516 38 0.0 0.0 0.00 0.00 0.00 60 1018.3
20260502050516 39 0.0 0.0 0.00 0.00 0.00 59 1018.3
20260502045516 39 0.0 0.0 0.00 0.00 0.00 58 1018.2
20260502044516 40 0.0 0.0 0.00 0.00 0.00 57 1018.2
20260502043516 40 0.0 0.0 0.00 0.00 0.00 55 1018.3
20260502042536 41 0.0 0.0 0.00 0.00 0.00 53 1018.2
20260502041516 41 0.0 0.0 0.00 0.00 0.00 52 1018.2
20260502040516 41 0.0 0.0 0.00 0.00 0.00 50 1018.2
20260502035516 42 0.0 0.0 0.00 0.00 0.00 51 1018.3
20260502034536 42 0.0 0.0 0.00 0.00 0.00 49 1018.3
20260502033536 43 0.0 0.0 0.00 0.00 0.00 48 1018.3
20260502032536 43 0.0 0.0 0.00 0.00 0.00 48 1018.2
20260502031516 43 0.0 0.9 0.00 0.00 0.00 47 1018.2
20260502030516 43 0.0 0.0 0.00 0.00 0.00 48 1018.2
20260502025536 43 0.0 0.0 0.00 0.00 0.00 47 1018.0
20260502024536 43 0.0 0.0 0.00 0.00 0.00 47 1017.9
20260502023516 43 0.0 0.0 0.00 0.00 0.00 49 1018.0
20260502022516 43 0.0 0.0 0.00 0.00 0.00 47 1017.9
20260502021516 44 0.0 0.0 0.00 0.00 0.00 49 1017.9
20260502020516 44 0.0 0.0 0.00 0.00 0.00 48 1017.8
20260502015516 45 0.0 0.0 0.00 0.00 0.00 47 1017.7
20260502014516 46 0.0 0.0 0.00 0.00 0.00 46 1017.7
20260502013516 46 0.0 0.0 0.00 0.00 0.00 46 1017.5
20260502012516 47 0.0 1.7 0.00 0.00 0.00 42 1017.5
20260502011516 47 0.0 0.9 0.00 0.00 0.00 41 1017.4
20260502010516 47 0.0 0.9 0.00 0.00 0.00 42 1017.3
20260502005516 47 0 0.9 1.7 0.00 0.00 0.00 43 1017.2
20260502004516 48 0 0.9 2.6 0.00 0.00 0.00 43 1017.1